Weather History for PAMR - September, 2013

Change the Weather History Date:

Friday, September 20, 2013

  Actual Average Record
Temperature  
Mean Temperature 39 °F -  
Max Temperature 48 °F 52 °F 63 °F (2001)
Min Temperature 32 °F 38 °F 32 °F (2013)
Degree Days  
Heating Degree Days 26    
Moisture  
Dew Point 22 °F    
Average Humidity 50    
Maximum Humidity 69    
Minimum Humidity 35    
Precipitation  
Precipitation 0.00 in - - ()
Sea Level Pressure  
Sea Level Pressure 29.29 in    
Wind  
Wind Speed 5 mph (NNE)    
Max Wind Speed 8 mph    
Max Gust Speed -    
Visibility 10 miles    
Events      
Averages and records for this station are not official NWS values.
T = Trace of Precipitation, MM = Missing Value Source: NWS Daily Summary

Daily Weather History Graph

Daily Weather History Graph

Search for Another Location

Airport or City:

Trip Planner

Search our weather history database for the weather conditions in past years. The results will help you decide how hot, cold, wet, or windy it might be!

Date:

Astronomy

Sep. 20, 2013 Rise Set
Actual Time 7:39 AM AKDT 8:04 PM AKDT
Civil Twilight 6:56 AM AKDT 8:47 PM AKDT
Nautical Twilight 6:03 AM AKDT 9:40 PM AKDT
Astronomical Twilight 5:04 AM AKDT 10:38 PM AKDT
Moon 8:01 PM AKDT (9/20) 9:41 AM AKDT (9/20)
Length of Visible Light 13h 51m
Length of Day
12h 24m
Full, 98% of the Moon is Illuminated
Sep 20
Full
Sep 26
Last Quarter
Oct 4
New
Oct 11
First Quarter
Oct 18
Full

Hourly Weather History & Observations

Time (AKDT) Temp. Windchill Dew Point Humidity Pressure Visibility Wind Dir Wind Speed Gust Speed Precip Events Conditions
12:53 AM 39.9 °F 34.5 °F 24.1 °F 53% 29.43 in 10.0 mi NE 8.1 mph - N/A   Partly Cloudy
1:53 AM 37.9 °F 32.1 °F 21.0 °F 51% 29.41 in 10.0 mi NNW 8.1 mph - N/A   Partly Cloudy
2:53 AM 37.0 °F 33.3 °F 21.0 °F 52% 29.40 in 10.0 mi NNW 4.6 mph - N/A   Clear
3:53 AM 36.0 °F 29.6 °F 19.9 °F 52% 29.40 in 10.0 mi North 8.1 mph - N/A   Clear
4:53 AM 36.0 °F 32.1 °F 19.9 °F 52% 29.40 in 10.0 mi North 4.6 mph - N/A   Clear
5:53 AM 34.0 °F 31.0 °F 21.0 °F 59% 29.41 in 10.0 mi NNE 3.5 mph - N/A   Clear
6:53 AM 33.1 °F - 21.9 °F 64% 29.41 in 10.0 mi Calm Calm - N/A   Clear
7:53 AM 32.0 °F 28.7 °F 23.0 °F 69% 29.39 in 10.0 mi NNW 3.5 mph - N/A   Clear
8:53 AM 36.0 °F 32.1 °F 21.0 °F 55% 29.39 in 10.0 mi ENE 4.6 mph - N/A   Clear
9:53 AM 37.9 °F 34.4 °F 19.9 °F 48% 29.38 in 10.0 mi North 4.6 mph - N/A   Clear
10:53 AM 39.0 °F 36.8 °F 21.0 °F 49% 29.37 in 10.0 mi Variable 3.5 mph - N/A   Clear
11:53 AM 39.9 °F 35.8 °F 21.0 °F 47% 29.36 in 10.0 mi NNW 5.8 mph - N/A   Clear
12:53 PM 42.1 °F 40.2 °F 21.9 °F 45% 29.33 in 10.0 mi Variable 3.5 mph - N/A   Clear
1:53 PM 45.0 °F 42.6 °F 21.0 °F 39% 29.30 in 10.0 mi Variable 4.6 mph - N/A   Clear
2:53 PM 45.0 °F 43.5 °F 19.9 °F 37% 29.28 in 10.0 mi Variable 3.5 mph - N/A   Clear
3:53 PM 46.9 °F - 21.0 °F 36% 29.26 in 10.0 mi Calm Calm - N/A   Clear
4:53 PM 46.0 °F - 19.9 °F 35% 29.23 in 10.0 mi Calm Calm - N/A   Clear
5:53 PM 46.0 °F 43.9 °F 21.9 °F 39% 29.19 in 10.0 mi Variable 4.6 mph - N/A   Clear
6:53 PM 46.0 °F 43.1 °F 21.0 °F 37% 29.15 in 10.0 mi NNE 5.8 mph - N/A   Clear
7:53 PM 44.1 °F - 23.0 °F 43% 29.13 in 10.0 mi Calm Calm - N/A   Clear
8:53 PM 42.1 °F 40.2 °F 24.1 °F 49% 29.11 in 10.0 mi NE 3.5 mph - N/A   Clear
9:53 PM 37.0 °F - 25.0 °F 62% 29.09 in 10.0 mi Calm Calm - N/A   Partly Cloudy
10:53 PM 37.0 °F 34.5 °F 25.0 °F 62% 29.07 in 10.0 mi NE 3.5 mph - N/A   Scattered Clouds
11:53 PM 36.0 °F 33.3 °F 25.0 °F 64% 29.03 in 10.0 mi NNE 3.5 mph - N/A   Scattered Clouds